EA5CH Weather Reports


time (UTC)temp
C
wind
direction
speed
KPH
gust
KPH
rain 1hr
cm
rain 24hr
cm
rain mn
cm
humidity
%
barometer
mb
20260507141539 20 113 9.7 24.1 0.00 0.00 0.00 78 1011.3
20260507140519 20 68 6.4 17.7 0.00 0.00 0.00 78 1011.3
20260507135519 20 68 8.0 22.5 0.00 0.00 0.00 78 1011.4
20260507134519 20 135 8.0 19.3 0.00 0.00 0.00 76 1011.5
20260507133519 20 225 6.4 12.9 0.00 0.00 0.00 75 1011.6
20260507132519 21 135 4.8 16.1 0.00 0.00 0.00 74 1011.6
20260507131519 21 90 8.0 19.3 0.00 0.00 0.00 71 1011.8
20260507130519 21 68 9.7 22.5 0.00 0.00 0.00 71 1012.1
20260507125519 21 135 9.7 25.7 0.00 0.00 0.00 70 1012.1
20260507124519 21 45 8.0 19.3 0.00 0.00 0.00 70 1012.2
20260507123519 21 68 8.0 16.1 0.00 0.00 0.00 71 1012.3
20260507122519 21 68 12.9 27.4 0.00 0.00 0.00 72 1012.4
20260507121519 21 90 9.7 22.5 0.00 0.00 0.00 70 1012.4
20260507120519 21 68 9.7 24.1 0.00 0.00 0.00 69 1012.5
20260507115519 21 90 6.4 16.1 0.00 0.00 0.00 71 1012.5
20260507114519 21 135 9.7 20.9 0.00 0.00 0.00 73 1012.7
20260507113519 21 113 6.4 19.3 0.00 0.00 0.00 71 1012.8
20260507112519 21 90 6.4 16.1 0.00 0.00 0.00 72 1012.8
20260507111519 21 90 6.4 17.7 0.00 0.00 0.00 71 1013.0
20260507110519 21 113 6.4 20.9 0.00 0.00 0.00 71 1013.1
20260507105519 20 113 8.0 19.3 0.00 0.00 0.00 72 1013.2
20260507104519 20 113 9.7 20.9 0.00 0.00 0.00 71 1013.2
20260507103517 20 68 8.0 17.7 0.00 0.00 0.00 70 1013.4
20260507102519 21 158 4.8 12.9 0.00 0.00 0.00 70 1013.2
20260507101517 20 68 8.0 19.3 0.00 0.00 0.00 70 1013.3
20260507100519 20 113 6.4 16.1 0.00 0.00 0.00 69 1013.3
20260507095519 20 113 4.8 12.9 0.00 0.00 0.00 70 1013.4
20260507094519 20 90 6.4 14.5 0.00 0.00 0.00 71 1013.5
20260507093519 20 113 4.8 14.5 0.00 0.00 0.00 70 1013.6
20260507092519 20 68 6.4 17.7 0.00 0.00 0.00 68 1013.6
20260507091519 20 113 4.8 11.3 0.00 0.00 0.00 68 1013.5
20260507090517 20 158 4.8 12.9 0.00 0.00 0.00 67 1013.5
20260507085519 20 135 6.4 14.5 0.00 0.00 0.00 67 1013.4
20260507084519 20 68 6.4 17.7 0.00 0.00 0.00 66 1013.5
20260507083517 20 113 4.8 14.5 0.00 0.00 0.00 66 1013.4
20260507082519 20 113 4.8 14.5 0.00 0.00 0.00 66 1013.5
20260507081519 20 113 4.8 16.1 0.00 0.00 0.00 65 1013.5
20260507080519 20 248 4.8 16.1 0.00 0.00 0.00 64 1013.3
20260507075517 20 135 4.8 12.9 0.00 0.00 0.00 65 1013.1
20260507074519 20 90 3.2 11.3 0.00 0.00 0.00 64 1013.0
20260507073519 20 68 4.8 12.9 0.00 0.00 0.00 64 1013.0
20260507072538 20 113 4.8 12.9 0.00 0.00 0.00 63 1013.0
20260507071519 20 68 4.8 12.9 0.00 0.00 0.00 63 1012.9
20260507070519 19 68 6.4 12.9 0.00 0.00 0.00 62 1012.8
20260507065519 19 90 1.6 6.4 0.00 0.00 0.00 62 1012.9
20260507064517 18 0.0 0.0 0.00 0.00 0.00 66 1013.0
20260507063519 17 0.0 0.0 0.00 0.00 0.00 69 1012.9
20260507062519 16 0.0 0.0 0.00 0.00 0.00 71 1013.0
20260507061537 16 0.0 0.0 0.00 0.00 0.00 71 1013.1
20260507060519 16 0.0 0.0 0.00 0.00 0.00 72 1013.0
20260507055517 15 0.0 0.0 0.00 0.00 0.00 73 1013.0
20260507054519 15 0.0 0.0 0.00 0.00 0.00 73 1012.9
20260507053539 15 0.0 0.0 0.00 0.00 0.00 74 1012.9
20260507052517 15 0.0 0.0 0.00 0.00 0.00 74 1012.6
20260507051519 15 0.0 0.0 0.00 0.00 0.00 75 1012.6
20260507050519 15 0.0 3.2 0.00 0.00 0.00 76 1012.5
20260507045538 14 0.0 1.6 0.00 0.00 0.00 77 1012.6
20260507044519 14 0.0 3.2 0.00 0.00 0.00 76 1012.4
20260507043519 15 0.0 3.2 0.00 0.00 0.00 77 1012.4
20260507042519 15 0.0 0.0 0.00 0.00 0.00 77 1012.4
20260507041517 15 0.0 0.0 0.00 0.00 0.00 76 1012.3
20260507040539 15 0.0 0.0 0.00 0.00 0.00 77 1012.2
20260507035519 15 0.0 0.0 0.00 0.00 0.00 77 1012.2
20260507034517 15 0.0 0.0 0.00 0.00 0.00 78 1012.2
20260507033517 15 0.0 0.0 0.00 0.00 0.00 78 1012.4
20260507032519 15 0.0 0.0 0.00 0.00 0.00 78 1012.4
20260507031519 15 0.0 0.0 0.00 0.00 0.00 79 1012.5
20260507030517 15 0.0 0.0 0.00 0.00 0.00 78 1012.6
20260507025519 15 0.0 0.0 0.00 0.00 0.00 79 1012.5
20260507024519 15 0.0 0.0 0.00 0.00 0.00 79 1012.6
20260507023517 15 0.0 3.2 0.00 0.00 0.00 78 1012.8
20260507022517 15 0.0 0.0 0.00 0.00 0.00 78 1012.9
20260507021519 15 0.0 0.0 0.00 0.00 0.00 78 1013.0
20260507020519 15 0.0 0.0 0.00 0.00 0.00 78 1012.9
20260507015517 15 0.0 0.0 0.00 0.00 0.00 78 1012.9
20260507014519 15 0.0 0.0 0.00 0.00 0.00 78 1012.8
20260507013519 15 0.0 0.0 0.00 0.00 0.00 79 1012.8
20260507012517 15 0.0 1.6 0.00 0.00 0.00 79 1012.7
20260507011519 15 0.0 1.6 0.00 0.00 0.00 78 1012.8
20260507010519 16 0.0 1.6 0.00 0.00 0.00 77 1013.0
20260507005517 16 0.0 0.0 0.00 0.00 0.00 77 1012.9
20260507004517 16 0.0 0.0 0.00 0.00 0.00 76 1013.0
20260507003539 16 0.0 0.0 0.00 0.00 0.00 76 1013.0
20260507002519 16 0.0 1.6 0.00 0.00 0.00 76 1013.1
20260507001537 16 45 1.6 3.2 0.00 0.00 0.00 76 1013.2
20260507000519 16 45 1.6 6.4 0.00 0.00 0.00 76 1013.2
20260506235519 16 0 1.6 4.8 0.00 0.00 0.00 76 1013.4
20260506234517 16 23 1.6 4.8 0.00 0.00 0.00 76 1013.4
20260506233517 16 23 1.6 4.8 0.00 0.00 0.00 76 1013.5
20260506232519 16 23 3.2 8.0 0.00 0.00 0.00 76 1013.5
20260506231519 16 45 3.2 9.7 0.00 0.00 0.00 75 1013.6
20260506230517 16 0 3.2 9.7 0.00 0.00 0.00 76 1013.6
20260506225519 16 45 3.2 8.0 0.00 0.00 0.00 77 1013.6
20260506224519 16 23 1.6 6.4 0.00 0.00 0.00 77 1013.5
20260506223517 16 45 3.2 8.0 0.00 0.00 0.00 77 1013.6
20260506222519 16 45 1.6 8.0 0.00 0.00 0.00 77 1013.8
20260506221519 16 23 1.6 6.4 0.00 0.00 0.00 77 1013.8
20260506220520 16 45 1.6 4.8 0.00 0.00 0.00 77 1013.9
20260506215539 16 0.0 3.2 0.00 0.00 0.00 77 1014.0
20260506214517 17 23 1.6 6.4 0.00 0.00 0.00 77 1014.1
20260506213537 16 0 3.2 6.4 0.00 0.00 0.00 77 1014.1
20260506212519 16 0 1.6 4.8 0.00 0.00 0.00 77 1014.0
20260506211518 17 0 3.2 6.4 0.00 0.00 0.00 76 1014.1
20260506210517 17 23 3.2 8.0 0.00 0.00 0.00 76 1013.8
20260506205519 17 0 3.2 8.0 0.00 0.00 0.00 76 1013.8
20260506204519 17 0.0 6.4 0.00 0.00 0.00 76 1013.8
20260506203517 17 23 1.6 4.8 0.00 0.00 0.00 75 1013.7
20260506202537 17 90 6.4 12.9 0.00 0.00 0.00 76 1013.6
20260506201519 17 68 6.4 16.1 0.00 0.00 0.00 76 1013.3
20260506200519 18 68 4.8 12.9 0.00 0.00 0.00 76 1013.3
20260506195518 18 68 3.2 9.7 0.00 0.00 0.00 76 1013.2
20260506194519 18 68 4.8 12.9 0.00 0.00 0.00 76 1012.9
20260506193539 18 68 8.0 22.5 0.00 0.00 0.00 76 1012.7
20260506192518 18 68 6.4 19.3 0.00 0.00 0.00 76 1012.8
20260506191517 18 225 8.0 17.7 0.00 0.00 0.00 76 1012.7
20260506190519 18 225 6.4 14.5 0.00 0.00 0.00 76 1012.6
20260506185520 18 68 6.4 19.3 0.00 0.00 0.00 75 1012.5
20260506184517 18 45 6.4 17.7 0.00 0.00 0.00 76 1012.5
20260506183517 18 225 8.0 17.7 0.00 0.00 0.00 75 1012.5
20260506182517 18 90 8.0 17.7 0.00 0.00 0.00 75 1012.4
20260506181517 18 68 8.0 20.9 0.00 0.00 0.00 75 1012.4
20260506180517 18 225 4.8 11.3 0.00 0.00 0.00 75 1012.4
20260506175517 18 68 9.7 20.9 0.00 0.00 0.00 74 1012.3
20260506174519 18 90 6.4 19.3 0.00 0.00 0.00 74 1012.2
20260506173520 19 90 6.4 17.7 0.00 0.00 0.00 74 1012.3
20260506172517 18 90 9.7 17.7 0.00 0.00 0.00 73 1012.3
20260506171517 19 68 11.3 25.7 0.00 0.00 0.00 73 1012.3
20260506170539 20 113 9.7 24.1 0.00 0.00 0.00 71 1012.3
20260506165518 20 225 6.4 14.5 0.00 0.00 0.00 71 1012.4
20260506164517 19 68 9.7 22.5 0.00 0.00 0.00 71 1012.2
20260506163537 20 90 8.0 22.5 0.00 0.00 0.00 69 1012.3
20260506162519 20 293 6.4 14.5 0.00 0.00 0.00 69 1012.3
20260506161537 20 90 9.7 22.5 0.00 0.00 0.00 69 1012.1
20260506160517 20 90 8.0 17.7 0.00 0.00 0.00 67 1012.2
20260506155519 20 90 8.0 17.7 0.00 0.00 0.00 69 1012.2
20260506154518 20 113 12.9 27.4 0.00 0.00 0.00 67 1012.2
20260506153517 20 68 12.9 27.4 0.00 0.00 0.00 66 1012.1
20260506152559 20 90 8.0 19.3 0.00 0.00 0.00 66 1012.1
20260506151517 20 68 6.4 14.5 0.00 0.00 0.00 68 1012.1
20260506150517 20 113 9.7 20.9 0.00 0.00 0.00 70 1012.2
20260506145537 20 135 8.0 24.1 0.00 0.00 0.00 70 1012.3
20260506144519 20 113 8.0 27.4 0.00 0.00 0.00 68 1012.4
20260506143538 21 225 8.0 22.5 0.00 0.00 0.00 69 1012.5
20260506142517 21 68 9.7 25.7 0.00 0.00 0.00 70 1012.4